When you browse on this site, cookies collect data to enhance your experience and personalize the content and advertising you see.
Visit our Privacy Policy to learn more. By continuing to use the site, you agree to this use of cookies and data.
  • In Czech Republic
  • List of Countries
  • For 7 days
  • Water Temperature
  • Satellite Maps
  • Weather Map
  • Weather Widgets
  • user-avatar
    Login

    Hourly Weather Mesa

    Today, 17 July, Wednesday

    Time Temperature Precipitation Wind Pressure Humidity
    00:00 +38°C° 0 mm 4 mps 726 mmHg 26%
    01:00 +37°C° 0 mm 3 mps 726 mmHg 28%
    02:00 +36°C° 0 mm 2 mps 727 mmHg 31%
    03:00 +35°C° 0 mm 2 mps 727 mmHg 33%
    04:00 +34°C° 0 mm 1 mps 727 mmHg 35%
    05:00 +33°C° 0 mm 1 mps 727 mmHg 36%
    06:00 +35°C° 0 mm 2 mps 727 mmHg 35%
    07:00 +36°C° 0 mm 2 mps 728 mmHg 34%
    08:00 +37°C° 0 mm 3 mps 729 mmHg 32%
    09:00 +38°C° 0 mm 3 mps 728 mmHg 29%
    10:00 +40°C° 0 mm 3 mps 728 mmHg 27%
    11:00 +42°C° 0 mm 4 mps 728 mmHg 24%
    12:00 +43°C° 0 mm 4 mps 728 mmHg 22%
    13:00 +44°C° 0 mm 4 mps 727 mmHg 20%
    14:00 +45°C° 0 mm 4 mps 727 mmHg 19%
    15:00 +45°C° 0 mm 4 mps 726 mmHg 18%
    16:00 +46°C° 0 mm 5 mps 726 mmHg 18%
    17:00 +46°C° 0 mm 5 mps 725 mmHg 18%
    18:00 +45°C° 0 mm 5 mps 726 mmHg 19%
    19:00 +44°C° 0 mm 6 mps 726 mmHg 20%
    20:00 +42°C° 0 mm 6 mps 726 mmHg 21%
    21:00 +41°C° 0.1 mm 5 mps 727 mmHg 22%
    22:00 +40°C° 0.1 mm 4 mps 727 mmHg 23%
    23:00 +38°C° 0.1 mm 3 mps 728 mmHg 23%

    Tomorrow, 18 July, Thursday

    Time Temperature Precipitation Wind Pressure Humidity
    00:00 +37°C° 0.1 mm 3 mps 728 mmHg 25%
    01:00 +36°C° 0.1 mm 4 mps 728 mmHg 27%
    02:00 +35°C° 0.1 mm 4 mps 729 mmHg 28%
    03:00 +34°C° 0 mm 3 mps 729 mmHg 33%
    04:00 +33°C° 0 mm 3 mps 729 mmHg 37%
    05:00 +31°C° 0 mm 2 mps 728 mmHg 41%
    06:00 +32°C° 0 mm 2 mps 729 mmHg 39%
    07:00 +34°C° 0 mm 2 mps 729 mmHg 37%
    08:00 +34°C° 0 mm 2 mps 729 mmHg 34%
    09:00 +36°C° 0 mm 2 mps 729 mmHg 30%
    10:00 +37°C° 0 mm 2 mps 728 mmHg 27%
    11:00 +38°C° 0 mm 2 mps 728 mmHg 23%
    12:00 +39°C° 0 mm 2 mps 727 mmHg 21%
    13:00 +40°C° 0 mm 2 mps 727 mmHg 19%
    14:00 +42°C° 0 mm 3 mps 726 mmHg 17%
    15:00 +43°C° 0 mm 3 mps 726 mmHg 17%
    16:00 +43°C° 0 mm 3 mps 725 mmHg 17%
    17:00 +44°C° 0 mm 4 mps 725 mmHg 17%
    18:00 +43°C° 0 mm 3 mps 725 mmHg 18%
    19:00 +42°C° 0 mm 3 mps 725 mmHg 19%
    20:00 +40°C° 0 mm 3 mps 725 mmHg 20%
    21:00 +40°C° 0 mm 3 mps 725 mmHg 21%
    22:00 +39°C° 0 mm 3 mps 726 mmHg 21%
    23:00 +38°C° 0 mm 4 mps 726 mmHg 22%

    Day after tomorrow, 19 July, Friday

    Time Temperature Precipitation Wind Pressure Humidity
    00:00 +37°C° 0 mm 3 mps 726 mmHg 24%
    01:00 +36°C° 0 mm 2 mps 726 mmHg 25%
    02:00 +35°C° 0 mm 2 mps 726 mmHg 26%
    03:00 +35°C° 0 mm 2 mps 726 mmHg 27%
    04:00 +34°C° 0 mm 2 mps 726 mmHg 27%
    05:00 +34°C° 0 mm 2 mps 726 mmHg 28%
    06:00 +35°C° 0 mm 2 mps 726 mmHg 25%
    07:00 +35°C° 0 mm 2 mps 726 mmHg 23%
    08:00 +36°C° 0 mm 2 mps 727 mmHg 21%
    09:00 +37°C° 0 mm 2 mps 727 mmHg 20%
    10:00 +38°C° 0 mm 2 mps 727 mmHg 19%
    11:00 +39°C° 0 mm 2 mps 727 mmHg 17%
    12:00 +40°C° 0 mm 3 mps 726 mmHg 17%
    13:00 +42°C° 0 mm 3 mps 726 mmHg 16%
    14:00 +43°C° 0 mm 3 mps 725 mmHg 15%
    15:00 +44°C° 0 mm 4 mps 725 mmHg 14%
    16:00 +44°C° 0 mm 4 mps 725 mmHg 13%
    17:00 +45°C° 0 mm 4 mps 724 mmHg 13%
    18:00 +44°C° 0 mm 3 mps 725 mmHg 14%
    19:00 +43°C° 0 mm 3 mps 725 mmHg 15%
    20:00 +40°C° 0 mm 2 mps 725 mmHg 16%
    21:00 +40°C° 0 mm 3 mps 725 mmHg 17%
    22:00 +39°C° 0 mm 3 mps 725 mmHg 18%
    23:00 +38°C° 0 mm 4 mps 726 mmHg 19%

    20 July, Saturday

    Time Temperature Precipitation Wind Pressure Humidity
    00:00 +37°C° 0 mm 3 mps 725 mmHg 22%
    01:00 +36°C° 0 mm 3 mps 725 mmHg 25%
    02:00 +35°C° 0 mm 3 mps 725 mmHg 28%
    03:00 +35°C° 0 mm 3 mps 726 mmHg 28%
    04:00 +34°C° 0 mm 2 mps 726 mmHg 29%
    05:00 +34°C° 0 mm 2 mps 726 mmHg 30%
    06:00 +34°C° 0 mm 2 mps 726 mmHg 28%
    07:00 +35°C° 0 mm 2 mps 727 mmHg 27%
    08:00 +35°C° 0 mm 1 mps 727 mmHg 26%
    09:00 +37°C° 0 mm 2 mps 727 mmHg 23%
    10:00 +39°C° 0 mm 2 mps 727 mmHg 21%
    11:00 +40°C° 0 mm 2 mps 727 mmHg 18%
    12:00 +42°C° 0 mm 3 mps 726 mmHg 17%
    13:00 +43°C° 0 mm 4 mps 725 mmHg 16%
    14:00 +44°C° 0 mm 4 mps 725 mmHg 14%
    15:00 +45°C° 0 mm 4 mps 725 mmHg 14%
    16:00 +45°C° 0 mm 4 mps 725 mmHg 14%
    17:00 +46°C° 0 mm 5 mps 724 mmHg 14%
    18:00 +44°C° 0 mm 4 mps 725 mmHg 15%
    19:00 +43°C° 0 mm 4 mps 725 mmHg 16%
    20:00 +42°C° 0 mm 4 mps 725 mmHg 17%
    21:00 +41°C° 0 mm 4 mps 726 mmHg 22%
    22:00 +38°C° 0 mm 4 mps 726 mmHg 27%
    23:00 +37°C° 0 mm 4 mps 726 mmHg 32%

    21 July, Sunday

    Time Temperature Precipitation Wind Pressure Humidity
    00:00 +36°C° 0 mm 3 mps 726 mmHg 34%
    01:00 +35°C° 0 mm 3 mps 726 mmHg 35%
    02:00 +35°C° 0 mm 2 mps 726 mmHg 37%
    03:00 +34°C° 0 mm 2 mps 726 mmHg 38%
    04:00 +33°C° 0 mm 1 mps 727 mmHg 40%
    05:00 +33°C° 0 mm 1 mps 727 mmHg 41%
    06:00 +33°C° 0 mm 1 mps 727 mmHg 39%
    07:00 +34°C° 0 mm 1 mps 727 mmHg 37%
    08:00 +35°C° 0 mm 1 mps 728 mmHg 34%
    09:00 +37°C° 0 mm 2 mps 727 mmHg 32%
    10:00 +38°C° 0 mm 2 mps 727 mmHg 29%
    11:00 +40°C° 0 mm 3 mps 727 mmHg 26%
    12:00 +42°C° 0 mm 3 mps 727 mmHg 24%
    13:00 +43°C° 0 mm 3 mps 726 mmHg 22%
    14:00 +44°C° 0 mm 3 mps 726 mmHg 20%
    15:00 +44°C° 0 mm 3 mps 726 mmHg 19%
    16:00 +45°C° 0 mm 3 mps 726 mmHg 18%
    17:00 +45°C° 0 mm 2 mps 726 mmHg 17%
    18:00 +44°C° 0 mm 3 mps 726 mmHg 19%
    19:00 +43°C° 0 mm 3 mps 726 mmHg 21%
    20:00 +42°C° 0 mm 3 mps 727 mmHg 23%
    21:00 +40°C° 0.1 mm 3 mps 727 mmHg 26%
    22:00 +38°C° 0.1 mm 3 mps 728 mmHg 30%
    23:00 +37°C° 0.1 mm 3 mps 728 mmHg 33%

    22 July, Monday

    Time Temperature Precipitation Wind Pressure Humidity
    00:00 +36°C° 0 mm 4 mps 728 mmHg 37%
    01:00 +35°C° 0 mm 4 mps 728 mmHg 41%
    02:00 +34°C° 0 mm 5 mps 728 mmHg 46%
    03:00 +33°C° 0 mm 4 mps 728 mmHg 47%
    04:00 +33°C° 0 mm 3 mps 728 mmHg 49%
    05:00 +31°C° 0 mm 3 mps 728 mmHg 50%
    06:00 +32°C° 0 mm 2 mps 728 mmHg 47%
    07:00 +34°C° 0 mm 2 mps 729 mmHg 45%
    08:00 +35°C° 0 mm 2 mps 729 mmHg 42%
    09:00 +36°C° 0 mm 2 mps 729 mmHg 38%
    10:00 +38°C° 0 mm 2 mps 729 mmHg 34%
    11:00 +39°C° 0 mm 3 mps 729 mmHg 30%
    12:00 +40°C° 0 mm 3 mps 728 mmHg 28%
    13:00 +42°C° 0 mm 3 mps 728 mmHg 26%
    14:00 +43°C° 0 mm 3 mps 727 mmHg 24%
    15:00 +43°C° 0 mm 4 mps 727 mmHg 24%
    16:00 +43°C° 0 mm 5 mps 727 mmHg 25%
    17:00 +42°C° 0 mm 5 mps 727 mmHg 25%
    18:00 +41°C° 0.2 mm 6 mps 728 mmHg 29%
    19:00 +39°C° 0.2 mm 8 mps 728 mmHg 34%
    20:00 +37°C° 0.2 mm 9 mps 729 mmHg 38%
    21:00 +36°C° 0.3 mm 7 mps 729 mmHg 39%
    22:00 +35°C° 0.3 mm 5 mps 730 mmHg 40%
    23:00 +35°C° 0.3 mm 3 mps 730 mmHg 40%
    Show more